Regional Weather Roundup
Issued by NWS State College, PA

Home | Current Version | Previous Version | Text Only | Print | Product List | Glossary Off
Versions: 1 2 3 4 5 6 7 8 9 10 11 12 13 14 15 16 17 18 19 20 21 22 23 24 25 26 27 28 29 30 31 32 33 34 35 36 37 38 39 40 41 42 43 44 45 46 47 48 49 50

000
ASUS41 KCTP 020110
RWRCTP

REGIONAL WEATHER ROUNDUP
NATIONAL WEATHER SERVICE STATE COLLEGE PA
800 PM EST SUN FEB 01 2015

Note: "fair" indicates few or no clouds below 12,000 feet with no
significant weather and/or obstructions to visibility.

* = STATION THAT DOES NOT REPORT PRECIPITATION /E.G. RAIN...SNOW...ETC/
    THUNDER OR FOG.

PAZ002>004-007>009-013>016-020>023-029>032-020200-
WESTERN PENNSYLVANIA

CITY           SKY/WX    TMP DP  RH WIND       PRES   REMARKS
ERIE           LGT SNOW  23  20  88 NE14      29.75F VSB 3/4 WCI  11
MEADVILLE      SNOW      30  27  88 E8        29.67F VSB 1/4
FRANKLIN*      CLOUDY    28  27  93 E13       29.71F
NEW CASTLE     LGT SNOW  33  32  96 SE6       29.70F FOG
BEAVER COUNTY  NOT AVBL
BUTLER*        CLOUDY    34  30  86 E10       29.72F
PITTSBURGH INT LGT RAIN  35  34  96 SE9       29.69F FOG
PITTSBURGH     LGT RAIN  36  32  85 SE14      29.68F FOG
INDIANA*       CLOUDY    34  32  93 SE10G21   29.79F FOG
LATROBE        LGT RAIN  36  32  87 S7        29.76F
WASHINGTON CO* CLOUDY    37  36  93 S10       29.69F
$$

PAZ004>006-010>012-017>019-024>028-033>037-041-042-045-046-049>053-020200-
CENTRAL PENNSYLVANIA

CITY           SKY/WX    TMP DP  RH WIND       PRES   REMARKS
BRADFORD       LGT SNOW  25  21  85 SE12G21   29.77F VSB 1   WCI  14
DUBOIS         SNOW      28  27  96 E10       29.75F VSB 1/2
CLEARFIELD     LGT SNOW  28  26  92 E8        29.82F FOG
JOHNSTOWN      MIX PCPN  29  23  78 SE14G28   29.75F
ALTOONA        CLOUDY    30  24  78 CALM      29.85F
STATE COLLEGE  LGT SNOW  28  28 100 CALM      29.88F
WILLIAMSPORT   LGT SNOW  29  26  89 NE16      29.96F FOG
SELINSGROVE    LGT SNOW  31  29  92 SE3       29.99F FOG
FT INDIANTOWN  LGT SNOW  30  28  94 SE3       30.01F FOG
CAPITAL CITY   CLOUDY    32  27  81 E8        30.00F
HARRISBURG     CLOUDY    32  27  81 E7        29.99F
YORK           CLOUDY    34  21  59 SE7       29.98F
$$

PAZ038>040-043-044-047-048-054-055-060>062-067>071-020200-
EASTERN PENNSYLVANIA

CITY           SKY/WX    TMP DP  RH WIND       PRES   REMARKS
SCRANTON       LGT SNOW  28  25  88 NE5       29.99F FOG
MOUNT POCONO   LGT SNOW  25  22  88 SE8       29.96F FOG
ALLENTOWN      LGT SNOW  32  28  85 SE3       30.07S VSB 3/4
QUAKERTOWN*    CLOUDY    32  30  93 CALM      30.06F
READING        LGT SNOW  32  28  85 E6        30.03F FOG
LANCASTER      CLOUDY    32  25  75 E9        30.01F
COATESVILLE    CLOUDY    34  23  64 SE6       30.03F
POTTSTOWN      CLOUDY    32  28  85 NE6       30.07F
BLUE BELL      CLOUDY    34  30  86 E3        30.05F
DOYLESTOWN     LGT SNOW  31  29  92 CALM      30.06F FOG
WILLOW GROVE   NOT AVBL
NORTH PHILA    CLOUDY    37  23  56 SE5       30.10F
PHILADELPHIA   CLOUDY    36  21  54 SE8       30.09F
$$


USA.gov is the U.S. government's official web portal to all federal, state and local government web resources and services.